• Processing (Info)

  • MPEC 2005-T04 : 2005 SY70

    The following Minor Planet Electronic Circular may be linked-to from your own Web pages, but must not otherwise be redistributed electronically.

    A form allowing access to any MPEC is at the bottom of this page.


    Read MPEC 2005-T03 Read MPEC 2005-T05


    M.P.E.C. 2005-T04                                Issued 2005 Oct. 1, 16:14 UT
    
         The Minor Planet Electronic Circulars contain information on unusual
             minor planets and routine data on comets.  They are published
       on behalf of Commission 20 of the International Astronomical Union by the
              Minor Planet Center, Smithsonian Astrophysical Observatory,
                              Cambridge, MA 02138, U.S.A.
    
                      Supported in part by the Brinson Foundation
                 Prepared using the Tamkin Foundation Computer Network
    
                                  MPC@CFA.HARVARD.EDU
              URL http://cfa-www.harvard.edu/iau/mpc.html  ISSN 1523-6714
    
                                       2005 SY70
    
    Observations:
         K05S70Y* C2005 09 30.25563 00 28 27.87 -03 19 24.4          21.4 V ET004G96
         K05S70Y  C2005 09 30.26174 00 28 32.23 -03 18 43.3          21.0 V ET004G96
         K05S70Y  C2005 09 30.26784 00 28 36.58 -03 18 03.1          20.6 V ET004G96
         K05S70Y  C2005 09 30.27392 00 28 40.94 -03 17 22.4          20.8 V ET004G96
         K05S70Y  C2005 09 30.37942 00 29 56.76 -03 05 39.9          21.1 V ET004G96
         K05S70Y  C2005 09 30.38042 00 29 57.48 -03 05 33.8          20.6 V ET004G96
         K05S70Y  C2005 09 30.38134 00 29 58.17 -03 05 27.0          21.0 V ET004G96
         K05S70Y  C2005 09 30.38237 00 29 58.88 -03 05 20.5          20.4 V ET004G96
         K05S70Y  C2005 10 01.05573 00 38 49.89 -01 49 55.1                 ET004J95
         K05S70Y  C2005 10 01.06364 00 38 55.73 -01 49 00.6                 ET004J95
         K05S70Y  C2005 10 01.07254 00 39 02.55 -01 47 56.8          20.5 R ET004J95
         K05S70Y  C2005 10 01.24965 00 41 29.97 -01 26 54.1          21.5 V ET004G96
         K05S70Y  C2005 10 01.25645 00 41 35.01 -01 26 07.2          22.1 V ET004G96
         K05S70Y  C2005 10 01.26318 00 41 40.12 -01 25 20.3          22.1 V ET004G96
    
    Observer details:
    G96 Mt. Lemmon Survey.  Observer E. J. Christensen.  Measurers E. C. Beshore,
        C. M. Casey, E. J. Christensen, G. J. Garradd, A. D. Grauer, R. E. Hill,
        S. M. Larson, R. H. McNaught, R. A. Kowalski.  1.5-m reflector + CCD.
    J95 Great Shefford.  Observer P. Birtwhistle.  0.40-m f/6.0 Schmidt-Cassegrain
        + CCD.
    
    Orbital elements:
    2005 SY70
    Epoch 2005 Sept. 27.0 TT = JDT 2453640.5                MPC
    M 356.39818              (2000.0)            P               Q
    n   0.28315355     Peri.  358.65344     +0.95242817     -0.30465133
    a   2.2967905      Node    19.09002     +0.27985017     +0.86352369
    e   0.5431334      Incl.    1.44644     +0.12068335     +0.40188854
    P   3.48           H   26.9           G   0.15
    From 14 observations 2005 Sept. 30-Oct. 1.
    
    Ephemeris:
    2005 SY70                a,e,i = 2.30, 0.54, 1                   q = 1.0493
    Date    TT    R. A. (2000) Decl.     Delta      r     Elong.  Phase     V
    2005 09 27    23 49.60   -08 42.5    0.0599   1.061   168.0    11.3    21.6
    2005 09 28    00 00.84   -07 10.7    0.0581   1.059   169.9     9.5    21.5
    2005 09 29    00 12.69   -05 31.7    0.0564   1.058   171.8     7.7    21.3
    2005 09 30    00 25.14   -03 46.0    0.0550   1.056   173.5     6.2    21.2
    2005 10 01    00 38.12   -01 54.2    0.0539   1.055   174.5     5.2    21.1
    2005 10 02    00 51.55   +00 02.5    0.0530   1.054   174.1     5.6    21.1
    2005 10 03    01 05.35   +02 02.5    0.0524   1.053   172.5     7.2    21.1
    2005 10 04    01 19.40   +04 04.3    0.0521   1.052   170.1     9.4    21.2
    2005 10 05    01 33.58   +06 06.0    0.0521   1.051   167.4    12.0    21.3
    2005 10 06    01 47.75   +08 05.7    0.0524   1.050   164.6    14.6    21.4
    2005 10 07    02 01.79   +10 01.5    0.0529   1.050   161.8    17.3    21.5
    2005 10 08    02 15.58   +11 52.1    0.0537   1.050   159.0    19.9    21.7
    2005 10 09    02 29.01   +13 36.2    0.0548   1.049   156.4    22.4    21.8
    2005 10 10    02 41.97   +15 13.0    0.0562   1.049   153.9    24.7    21.9
    2005 10 11    02 54.40   +16 42.0    0.0577   1.049   151.6    26.9    22.0
    2005 10 12    03 06.24   +18 03.3    0.0595   1.050   149.5    28.8    22.1
    2005 10 13    03 17.45   +19 16.8    0.0614   1.050   147.6    30.6    22.3
    2005 10 14    03 28.02   +20 23.0    0.0636   1.051   145.9    32.2    22.4
    2005 10 15    03 37.94   +21 22.2    0.0658   1.051   144.4    33.5    22.5
    2005 10 16    03 47.21   +22 15.1    0.0682   1.052   143.1    34.7    22.6
    2005 10 17    03 55.85   +23 02.2    0.0708   1.053   141.9    35.7    22.7
    
    Brian G. Marsden             (C) Copyright 2005 MPC           M.P.E.C. 2005-T04
    

    Read MPEC 2005-T03 Read MPEC 2005-T05


    MPEC number:

    Enter an MPEC number in one of the following forms:

    • 1997-B01 (the full form)
    • J97B01 (the packed version of the full form)
    • B01 (the abbreviated form)